Weather History for SAWH - December, 2012

Change the Weather History Date:

Sunday, December 30, 2012

  Actual Average Record
Temperature  
Mean Temperature 44 °F -  
Max Temperature 48 °F - - ()
Min Temperature 40 °F - - ()
Degree Days  
Heating Degree Days 21    
Moisture  
Dew Point 37 °F    
Average Humidity 77    
Maximum Humidity 87    
Minimum Humidity 62    
Precipitation  
Precipitation 0.12 in - - ()
Sea Level Pressure  
Sea Level Pressure 29.71 in    
Wind  
Wind Speed 14 mph ()    
Max Wind Speed 22 mph    
Max Gust Speed 30 mph    
Visibility 7.2 miles    
Events Rain    
T = Trace of Precipitation, MM = Missing Value Source: Averaged Metar Reports

Daily Weather History Graph

Daily Weather History Graph

Search for Another Location

Airport or City:

Trip Planner

Search our weather history database for the weather conditions in past years. The results will help you decide how hot, cold, wet, or windy it might be!

Date:

Astronomy

Dec. 30, 2012 Rise Set
Actual Time 4:58 AM ART 10:13 PM ART
Civil Twilight 4:01 AM ART 11:09 PM ART
Nautical Twilight 1:43 AM ART 1:18 AM ART
Astronomical Twilight Sun does not rise Sun does not rise
Moon 10:53 PM ART (12/30) 7:34 AM ART (12/30)
Length of Visible Light 19h 07m
Length of Day
17h 14m
Waning Gibbous, 96% of the Moon is Illuminated
Dec 30
Waning Gibbous
Jan 5
Last Quarter
Jan 11
New
Jan 18
First Quarter
Jan 27
Full

Hourly Weather History & Observations

Time (ART) Temp. Windchill Dew Point Humidity Pressure Visibility Wind Dir Wind Speed Gust Speed Precip Events Conditions
12:00 AM 41.0 °F 32.8 °F 35.6 °F 81% 29.62 in 6.2 mi West 16.1 mph - N/A   Overcast
1:00 AM 42.8 °F 35.8 °F 33.8 °F 70% 29.62 in 6.2 mi SW 13.8 mph - N/A   Overcast
2:00 AM 41.0 °F 32.2 °F 32.0 °F 70% 29.59 in 6.2 mi WSW 18.4 mph - N/A   Mostly Cloudy
3:00 AM 41 °F - 36 °F 77% 29.60 in 19 mi WSW 17.3 mph - -   Overcast
3:00 AM 41.0 °F 32.5 °F 35.6 °F 81% 29.59 in 6.2 mi WSW 17.3 mph - N/A   Overcast
4:00 AM 41.0 °F 32.8 °F 37.4 °F 87% 29.59 in 6.2 mi WSW 16.1 mph - N/A   Overcast
5:00 AM 41.0 °F 33.1 °F 37.4 °F 87% 29.59 in 6.2 mi WSW 15.0 mph - N/A   Overcast
6:00 AM 41.0 °F 33.1 °F 35.6 °F 81% 29.59 in 6.2 mi SW 15.0 mph - N/A   Light Drizzle
7:00 AM 41.0 °F 32.5 °F 35.6 °F 81% 29.62 in 6.2 mi SW 17.3 mph - N/A   Light Drizzle
8:00 AM 41.0 °F 31.6 °F 35.6 °F 81% 29.62 in 6.2 mi SW 20.7 mph - N/A   Light Drizzle
9:00 AM 43 °F - 35 °F 65% 29.65 in 12 mi SW 15.0 mph - - Rain Light Drizzle
9:00 AM 42.8 °F 35.4 °F 35.6 °F 76% 29.65 in 6.2 mi SW 15.0 mph - N/A   Mostly Cloudy
10:00 AM 44.6 °F 37.2 °F 35.6 °F 71% 29.65 in 6.2 mi SW 17.3 mph - N/A   Overcast
11:00 AM 44.6 °F 36.4 °F 35.6 °F 71% 29.65 in 6.2 mi SW 20.7 mph - N/A   Mostly Cloudy
12:00 PM 48.2 °F - 35.6 °F 62% 29.68 in 6.2 mi SW 19.6 mph - N/A   Mostly Cloudy
1:00 PM 48.2 °F - 35.6 °F 62% 29.71 in 6.2 mi SW 16.1 mph - N/A   Mostly Cloudy
2:00 PM 48.2 °F - 37.4 °F 66% 29.71 in 6.2 mi SW 17.3 mph - N/A   Mostly Cloudy
3:00 PM 47 °F - 38 °F 63% 29.75 in 12 mi SW 15.0 mph - -   Mostly Cloudy
3:00 PM 46.4 °F 40.1 °F 39.2 °F 76% 29.74 in 6.2 mi SW 15.0 mph - N/A   Mostly Cloudy
4:00 PM 46.4 °F 41.5 °F 37.4 °F 71% 29.77 in 6.2 mi SW 10.4 mph - N/A   Mostly Cloudy
5:00 PM 46.4 °F 44.3 °F 39.2 °F 76% 29.80 in 6.2 mi SW 4.6 mph - N/A   Drizzle
6:00 PM 44.6 °F 43.1 °F 39.2 °F 81% 29.83 in 6.2 mi NE 3.5 mph - N/A   Drizzle
7:00 PM 44.6 °F 36.9 °F 41.0 °F 87% 29.86 in 6.2 mi SE 18.4 mph - N/A   Drizzle
8:00 PM 44.6 °F 43.1 °F 41.0 °F 87% 29.86 in 6.2 mi West 3.5 mph - N/A   Mostly Cloudy
9:00 PM 43 °F - 38 °F 78% 29.65 in 9 mi SE 18.4 mph - -   Mostly Cloudy
9:00 PM 42.8 °F 34.5 °F 39.2 °F 87% 29.89 in 6.2 mi SE 18.4 mph - N/A   Mostly Cloudy
10:00 PM 42.8 °F 34.5 °F 39.2 °F 87% 29.92 in 6.2 mi SE 18.4 mph 29.9 mph N/A   Mostly Cloudy
11:00 PM 42.8 °F 33.8 °F 39.2 °F 87% 29.95 in 6.2 mi SE 21.9 mph - N/A   Mostly Cloudy